Погода в Фени

Бангладеш     23°00′57″N   91°23′34″E
темп.,
°C
ветер,
м/с
пор.,
м/с
влажн.,
%
обл.,
%
осадки,
мм/ч
давл.,
гПа
погр.,
м
11 мая, вт
вт1100:00+26ююв118320 1.9 100712
03:00+25вюв11920 0.8 100622
06:00+24юв23936 3.4 1007106
09:00+31ююз34595 2.9 10091261
12:00+34ююз55470 2.9 10071763
15:00+33ю66474 0.0 10011314
18:00+29юз6968100 0.3 1003631
21:00+23с4990100 8.1 1008408
12 мая, ср
ср1200:00+22всв5894100 13.6 1007251
03:00+22в379256 0.2 1005210
06:00+23юв1388100 0.2 1006126
09:00+28юв126565 0.0 1007598
12:00+33ю444556 0.0 10051518
15:00+32ююз55530 0.0 10031368
18:00+29ю57685 0.0 1002625
21:00+27ю388649 2.6 1004219
13 мая, чт
чт1300:00+27зюз3779100 9.4 1005128
03:00+24ссз339199 0.6 1004103
06:00+24в369361 0.6 1005221
09:00+28юв45715 0.3 1007665
12:00+32ююз545628 0.7 10061528
15:00+32ююз555551 0.6 10041222
18:00+29ююз3571100 1.4 1003301
21:00+25ю6990100 2.8 1004209
14 мая, пт
пт1400:00+25юв1288100 2.8 100456
03:00+25ююв388950 0.9 1003281
06:00+25в239318 2.4 1004129
09:00+29ю357421 3.5 1007787
12:00+32ююз665629 3.9 10051559
15:00+32ююз66565 0.1 10031331
18:00+29ююз47730 0.1 1003640
21:00+28ю48825 0.2 1004389
15 мая, сб
сб1500:00+26ююз49910 1.5 1003276
03:00+26ююв23945 1.6 100356
06:00+25юв24946 4.5 1005123
09:00+31ююв34716 2.1 1007847
12:00+34ю545226 3.9 10061768
15:00+33ю66540 0.0 10021132
18:00+27ссз238090 1.5 100395
21:00+26з61182100 0.1 1006248